Wind_Speed
18 19 21 22 22 23 25 26 27 34 33 31 32 32 30 28 29 29 31 31 32 33 33 34 34 35 36 36 38 39 39 40 41 42 43 45 46 48 48 49 49 49 49 48
19 19 19 21 22 24 25 26 26 31 28 28 30 30 29 28 28 29 30 31 31 31 32 32 33 34 34 35 36 37 37 38 39 40 42 44 45 47 49 50 50 50 50 50
18 18 18 20 22 22 24 24 24 26 28 27 28 29 28 24 24 26 27 29 29 29 29 29 30 30 31 32 32 33 33 34 35 37 39 40 42 45 47 49 50 51 51 51
15 16 17 19 20 20 20 20 21 23 24 26 25 26 27 23 23 24 24 24 25 25 25 25 26 27 27 27 27 28 28 29 31 32 34 36 38 40 43 46 48 48 49 49
11 13 15 15 16 17 18 18 19 20 20 20 21 23 26 23 23 23 22 23 24 24 24 24 24 24 24 23 24 24 24 25 26 28 30 31 33 34 36 39 41 43 44 45
10 10 11 12 13 15 16 17 17 16 16 17 17 20 24 22 22 22 22 23 24 24 23 23 22 21 20 19 19 19 19 20 22 23 24 25 26 27 29 31 33 36 38 39
5 6 8 10 12 13 14 15 16 16 17 17 18 19 20 20 21 21 21 22 22 21 21 19 18 17 17 17 16 15 16 17 18 18 18 19 19 20 21 23 25 28 31 33
4 5 7 9 11 13 14 15 14 11 9 15 17 18 19 19 19 20 20 20 19 18 18 18 17 16 16 16 16 16 15 16 16 17 16 15 14 14 15 16 18 21 25 28
3 5 7 9 11 13 14 14 14 12 11 10 16 18 16 17 18 19 19 18 17 17 18 18 18 18 18 18 17 17 17 17 17 17 16 15 14 12 11 11 13 15 18 21
4 5 7 9 11 13 14 15 15 14 14 11 13 18 19 19 20 19 17 16 16 17 18 19 19 19 20 20 20 19 19 19 18 18 17 15 14 12 11 10 9 10 12 15
6 7 8 10 12 14 15 16 16 16 16 15 15 17 18 18 18 17 16 16 16 17 18 19 19 20 20 21 21 21 21 21 20 19 18 17 15 14 12 11 9 7 7 9
7 8 9 11 13 15 16 17 17 17 17 16 16 16 16 16 16 16 16 16 16 17 18 19 19 20 21 21 22 22 23 22 22 21 19 18 16 15 13 12 10 9 8 7
8 9 10 12 14 15 16 18 18 18 17 17 17 17 16 16 15 15 15 16 17 18 18 19 19 20 21 21 22 23 23 23 23 22 21 20 18 16 15 13 11 10 9 8
8 9 11 13 14 15 17 18 19 18 18 18 18 17 16 16 15 15 16 16 18 19 19 19 19 20 20 21 22 23 23 23 23 22 21 20 19 18 16 15 13 12 11 10
8 8 10 11 13 15 17 18 19 19 18 18 17 17 16 16 16 15 16 17 18 19 19 18 19 19 20 20 21 22 23 23 23 22 21 21 20 19 17 16 15 14 13 12
7 8 9 10 12 14 15 17 19 19 19 18 17 16 16 15 15 15 16 16 17 18 18 19 18 18 19 20 21 21 22 22 22 22 22 22 20 19 18 18 16 15 14 14
6 7 8 9 11 12 14 16 18 19 19 19 18 16 16 16 15 15 15 16 17 18 18 18 18 18 19 19 20 21 22 22 22 22 22 22 22 20 20 19 17 17 17 16
6 7 8 9 10 12 14 16 17 18 18 19 18 17 16 16 15 14 14 16 17 18 18 18 18 18 18 19 20 21 21 22 22 23 23 23 23 22 21 20 19 19 19 18
6 7 8 9 10 11 12 14 15 16 17 18 18 18 18 17 16 14 14 14 16 17 17 18 18 18 18 19 20 21 21 22 23 24 24 24 24 24 23 22 21 21 21 20
8 9 9 10 11 11 12 13 13 15 15 17 18 18 18 17 16 15 14 14 14 15 16 16 17 17 18 19 19 20 21 22 23 24 25 25 25 24 24 24 23 23 23 23
10 11 11 11 12 12 12 13 13 13 14 16 16 17 18 18 17 16 15 14 14 14 15 16 16 16 17 18 18 19 20 21 23 24 25 25 26 26 25 25 24 24 24 24
13 13 13 13 13 12 13 13 13 13 13 14 15 16 17 17 17 16 15 14 14 14 14 15 15 15 15 16 17 18 20 21 22 24 25 25 26 27 27 26 25 25 25 25
15 15 15 15 15 15 15 15 14 14 14 13 13 14 15 16 16 16 15 14 14 14 13 13 13 14 14 15 16 17 18 20 21 23 24 25 26 27 27 27 26 26 25 25
17 17 18 18 18 17 17 17 16 16 15 14 14 13 13 14 14 15 15 14 14 14 13 13 12 12 13 13 14 15 16 18 19 21 22 24 25 26 27 27 27 26 25 25
20 20 20 20 20 20 19 18 18 18 17 17 16 15 14 13 13 13 13 14 13 13 13 13 12 11 11 12 13 14 15 16 17 19 20 22 23 24 26 27 27 27 26 25
22 22 22 22 23 22 21 20 20 20 19 19 18 17 16 15 14 14 13 13 13 13 13 13 12 12 11 11 12 13 14 15 16 17 18 20 21 23 24 25 26 27 27 26
Wind_Direction
269 276 283 291 295 294 294 292 289 287 299 301 300 302 302 301 298 299 299 299 298 297 296 294 292 290 288 286 284 282 279 276 274 272 271 269 268 267 267 266 266 263 262 261
272 277 287 292 295 295 295 293 291 292 301 302 303 303 304 303 301 302 302 302 301 300 298 297 295 293 291 289 287 284 281 278 275 273 271 270 268 267 266 266 265 263 262 260
276 292 296 297 299 300 298 299 298 297 304 304 305 305 305 306 305 305 305 304 303 301 299 298 296 295 294 293 291 289 285 281 278 275 273 272 270 268 266 265 263 262 260 259
284 294 298 301 304 306 306 309 306 304 307 308 312 312 313 322 318 315 313 311 310 308 307 306 305 303 301 298 297 295 292 288 285 283 279 276 274 272 268 264 262 260 259 257
293 296 301 307 313 314 315 316 314 312 311 311 317 318 319 330 326 323 322 321 320 317 315 314 312 310 309 307 304 301 299 296 292 289 286 281 278 275 270 265 260 258 256 255
300 304 313 320 323 324 324 323 321 319 324 327 329 324 326 333 331 329 328 328 327 326 325 323 321 321 321 319 317 315 312 309 306 301 294 289 284 278 272 266 260 256 255 252
299 316 328 333 335 335 334 334 335 338 337 332 331 329 334 332 333 332 333 334 335 337 338 339 341 342 341 339 337 337 334 330 327 322 312 302 294 286 279 271 262 257 252 248
351 5 353 349 349 348 348 346 347 344 324 320 332 339 341 339 339 339 340 342 346 351 357 2 5 5 5 4 1 358 353 350 348 344 339 328 315 302 294 284 270 260 252 247
32 24 10 3 359 359 359 1 0 357 355 340 331 349 352 348 348 348 349 352 360 8 12 17 20 20 18 16 13 10 7 2 358 355 350 348 346 336 322 300 282 268 257 250
54 39 29 20 16 15 14 12 9 6 6 358 337 347 354 356 355 357 1 8 15 19 22 24 26 25 23 21 20 19 15 13 11 10 8 4 1 1 357 342 311 289 273 259
69 59 51 38 29 24 20 17 15 13 14 7 1 0 357 0 3 8 14 17 20 23 24 24 24 23 24 24 23 21 18 15 14 12 11 10 8 6 3 1 351 330 302 277
75 60 55 45 36 30 25 22 20 19 17 14 12 13 8 9 12 16 19 21 22 24 23 23 24 25 26 26 25 23 22 21 20 17 15 14 13 11 9 5 359 348 335 315
75 61 53 52 43 33 29 26 25 24 22 22 21 21 16 17 19 22 24 26 26 24 22 23 26 26 27 27 26 25 25 25 24 24 24 24 22 19 16 12 6 359 348 335
72 59 51 45 40 35 30 27 25 24 24 25 25 25 25 26 28 28 29 28 25 22 23 25 26 26 26 26 26 25 25 25 25 25 25 25 25 24 22 20 16 9 1 350
68 54 47 42 37 33 29 27 26 25 24 24 25 26 26 27 26 25 24 22 20 19 20 22 23 23 24 25 24 24 25 25 25 25 24 24 25 25 24 22 18 14 9 2
59 47 41 36 34 31 27 26 26 26 25 23 23 23 23 22 21 21 20 20 19 19 21 21 21 21 22 22 22 22 22 23 24 24 22 21 20 20 19 17 15 12 8 3
42 34 29 27 28 27 26 24 23 23 23 23 22 20 19 18 16 17 19 19 19 20 21 21 20 20 19 19 19 20 20 20 20 19 18 17 17 15 14 12 10 7 3 358
15 12 11 11 15 18 19 18 17 18 19 19 20 19 17 15 14 14 15 17 17 19 20 20 20 20 19 19 19 18 18 18 17 16 15 14 14 13 11 9 7 5 1 358
346 349 350 353 360 6 8 8 10 11 13 15 16 15 15 14 13 12 9 10 12 15 17 19 20 20 20 19 19 19 18 18 17 16 15 14 13 12 11 9 7 5 3 360
319 325 329 335 340 348 355 358 2 5 6 9 11 11 11 10 10 9 7 6 7 11 14 16 18 19 19 20 20 20 20 20 20 19 18 16 15 13 11 10 9 7 6 4
301 307 312 318 324 332 339 342 348 352 357 1 3 5 7 7 7 6 5 4 5 6 10 13 14 16 18 20 20 20 21 21 20 19 18 17 16 14 13 12 11 10 9 8
291 296 300 304 309 317 320 326 331 336 342 348 352 355 358 1 3 3 1 1 1 2 5 8 11 12 14 16 18 20 21 21 20 19 18 17 16 16 15 15 14 13 12 12
282 288 291 295 300 304 307 311 316 320 325 331 337 342 348 353 357 358 359 358 357 357 359 2 5 7 9 12 15 17 18 19 19 19 19 18 18 17 17 17 16 16 16 16
277 279 282 286 290 294 297 300 304 307 310 314 318 323 330 338 345 351 353 353 352 351 352 353 355 359 2 5 8 10 12 13 15 17 18 19 19 19 19 19 19 19 19 20
275 274 276 279 281 284 287 292 295 297 300 302 304 307 311 317 325 332 340 344 345 346 347 347 347 347 350 354 359 2 4 7 11 15 17 18 19 20 21 21 22 22 23 24
274 274 274 274 276 278 280 282 285 288 291 293 295 296 298 301 305 312 319 328 334 337 338 340 341 340 339 340 344 350 355 360 4 8 13 16 17 19 20 22 23 24 25 27
Height
5905 5905 5904 5903 5902 5901 5899 5897 5894 5887 5886 5883 5879 5876 5873 5871 5868 5865 5861 5859 5856 5853 5850 5847 5845 5843 5840 5838 5836 5834 5833 5832 5831 5831 5831 5831 5832 5832 5834 5835 5838 5840 5843 5846
5902 5901 5902 5900 5899 5897 5895 5892 5889 5883 5882 5879 5874 5871 5868 5865 5862 5859 5856 5853 5850 5846 5843 5840 5837 5834 5832 5829 5826 5824 5822 5821 5820 5820 5819 5819 5820 5820 5821 5823 5825 5828 5831 5834
5898 5899 5898 5896 5895 5893 5890 5887 5884 5880 5876 5874 5870 5866 5863 5861 5858 5855 5851 5848 5844 5840 5837 5834 5830 5827 5824 5820 5817 5815 5812 5811 5810 5809 5808 5808 5808 5808 5809 5810 5812 5815 5818 5822
5896 5896 5895 5893 5891 5889 5886 5883 5880 5876 5873 5869 5866 5862 5857 5856 5853 5850 5846 5843 5839 5835 5831 5828 5824 5820 5817 5813 5810 5807 5804 5802 5800 5799 5798 5797 5796 5796 5796 5797 5799 5802 5805 5809
5894 5894 5892 5891 5888 5885 5883 5879 5876 5873 5869 5866 5863 5860 5855 5853 5849 5846 5842 5839 5835 5831 5827 5823 5819 5815 5811 5807 5804 5800 5797 5795 5792 5790 5788 5786 5785 5785 5784 5785 5786 5789 5792 5796
5892 5891 5890 5888 5886 5883 5880 5877 5874 5870 5867 5864 5862 5859 5854 5851 5847 5844 5840 5836 5832 5827 5823 5819 5814 5810 5807 5803 5799 5796 5793 5790 5787 5784 5781 5778 5777 5775 5775 5775 5776 5778 5782 5786
5891 5890 5889 5887 5885 5882 5879 5876 5872 5868 5864 5863 5861 5858 5855 5850 5846 5842 5839 5834 5830 5825 5821 5816 5812 5808 5804 5800 5797 5793 5790 5786 5783 5779 5776 5773 5771 5769 5768 5767 5768 5770 5773 5776
5889 5889 5888 5886 5884 5881 5878 5875 5872 5869 5866 5863 5860 5857 5855 5850 5846 5842 5838 5833 5829 5824 5820 5815 5811 5807 5803 5800 5796 5792 5788 5785 5781 5777 5774 5770 5767 5765 5763 5762 5763 5764 5766 5768
5889 5889 5888 5886 5883 5881 5878 5874 5871 5869 5866 5863 5859 5857 5854 5849 5845 5841 5837 5833 5829 5825 5820 5816 5812 5808 5804 5800 5796 5792 5789 5785 5781 5777 5773 5769 5766 5763 5761 5760 5760 5760 5761 5763
5890 5889 5888 5886 5884 5882 5879 5875 5872 5869 5865 5863 5861 5856 5853 5848 5845 5841 5837 5834 5830 5826 5822 5818 5814 5810 5806 5802 5798 5794 5789 5785 5781 5776 5773 5769 5766 5763 5761 5759 5758 5758 5758 5759
5890 5890 5889 5887 5885 5882 5880 5877 5873 5869 5866 5863 5860 5859 5853 5849 5845 5842 5839 5835 5832 5828 5824 5820 5816 5813 5808 5804 5800 5796 5791 5787 5782 5778 5774 5770 5767 5764 5762 5760 5758 5757 5757 5758
5891 5891 5889 5888 5886 5883 5880 5877 5874 5871 5867 5864 5860 5860 5853 5850 5847 5844 5840 5837 5834 5830 5827 5823 5819 5815 5811 5807 5803 5798 5794 5789 5784 5780 5776 5772 5769 5766 5763 5761 5759 5758 5757 5757
5892 5892 5891 5889 5889 5886 5882 5879 5875 5872 5869 5865 5862 5861 5855 5852 5848 5845 5842 5839 5836 5833 5829 5825 5821 5817 5813 5809 5805 5801 5797 5792 5787 5783 5779 5775 5771 5768 5765 5763 5761 5759 5758 5757
5893 5893 5892 5891 5888 5886 5883 5880 5877 5874 5870 5867 5863 5861 5857 5854 5851 5848 5845 5842 5839 5835 5831 5828 5824 5820 5816 5813 5808 5804 5800 5795 5791 5787 5782 5778 5775 5771 5768 5765 5763 5760 5759 5757
5895 5894 5892 5891 5889 5887 5885 5882 5879 5875 5872 5869 5866 5862 5859 5856 5853 5850 5847 5844 5841 5837 5834 5830 5827 5823 5819 5815 5811 5807 5803 5799 5794 5790 5786 5782 5778 5774 5771 5768 5765 5762 5760 5758
5896 5895 5894 5892 5890 5888 5886 5883 5880 5877 5874 5871 5868 5865 5861 5858 5855 5852 5849 5846 5843 5840 5836 5832 5829 5826 5822 5818 5814 5810 5806 5802 5797 5793 5789 5785 5781 5777 5774 5770 5767 5764 5761 5759
5897 5896 5895 5893 5891 5890 5888 5885 5882 5879 5876 5873 5870 5867 5863 5860 5857 5854 5851 5848 5845 5842 5838 5835 5831 5828 5824 5821 5817 5813 5809 5805 5800 5796 5792 5787 5783 5779 5776 5772 5769 5765 5762 5759
5897 5896 5895 5894 5893 5890 5890 5886 5883 5880 5878 5874 5871 5868 5865 5862 5859 5856 5853 5850 5847 5844 5840 5837 5834 5830 5827 5823 5819 5815 5811 5807 5803 5799 5794 5790 5785 5781 5777 5773 5769 5766 5762 5758
5897 5896 5895 5894 5892 5891 5889 5887 5884 5882 5879 5876 5873 5869 5866 5863 5860 5857 5855 5852 5849 5846 5843 5839 5836 5832 5829 5825 5822 5818 5814 5810 5806 5801 5797 5792 5788 5783 5779 5774 5770 5766 5762 5757
5896 5895 5895 5893 5892 5890 5890 5887 5884 5883 5880 5877 5873 5870 5867 5865 5862 5860 5856 5853 5850 5848 5844 5841 5838 5835 5831 5828 5824 5821 5817 5813 5808 5804 5799 5794 5790 5785 5780 5776 5771 5766 5762 5757
5895 5894 5893 5891 5890 5890 5888 5886 5884 5883 5881 5877 5874 5871 5868 5865 5863 5860 5857 5854 5851 5849 5846 5843 5840 5837 5833 5830 5827 5823 5819 5815 5811 5806 5802 5797 5792 5787 5782 5777 5772 5768 5763 5757
5892 5891 5891 5890 5889 5890 5886 5884 5883 5882 5879 5876 5874 5872 5869 5866 5863 5860 5857 5855 5852 5850 5847 5844 5842 5839 5836 5832 5829 5826 5822 5818 5813 5809 5805 5800 5795 5790 5785 5780 5774 5769 5764 5759
5889 5889 5888 5888 5888 5886 5884 5882 5881 5879 5877 5875 5873 5871 5869 5866 5864 5861 5858 5855 5853 5851 5848 5846 5843 5840 5837 5834 5831 5828 5824 5820 5816 5812 5808 5803 5798 5793 5788 5782 5777 5772 5766 5761
5885 5884 5884 5883 5883 5882 5881 5880 5879 5877 5875 5874 5872 5870 5868 5866 5863 5861 5858 5856 5853 5851 5849 5846 5844 5841 5839 5836 5833 5830 5826 5823 5819 5815 5811 5806 5801 5796 5791 5786 5780 5775 5769 5764
5880 5879 5879 5879 5878 5878 5877 5876 5875 5874 5873 5871 5870 5868 5866 5864 5862 5860 5858 5855 5853 5851 5848 5846 5844 5841 5839 5837 5834 5831 5828 5825 5821 5817 5813 5809 5804 5799 5794 5789 5784 5778 5773 5768
5874 5874 5874 5874 5873 5873 5872 5872 5871 5870 5869 5868 5866 5865 5863 5862 5860 5858 5856 5854 5852 5850 5848 5846 5843 5841 5839 5837 5834 5832 5829 5826 5823 5819 5815 5811 5807 5802 5798 5793 5788 5782 5777 5772